Main page
METAR-TAF:

METAR-TAF

Airports :

Qeshm International Airport

Qeshm, Iran

latitude: 26-45-18N, longitude: 055-54-08E, elevation: 12 m

Current weather observation

The report was made 32 minutes ago, at 06:00 UTC
Wind 8 kt from the East/Northeast
Temperature 20°C
Humidity 68%
Pressure 1017 hPa
Visibility: 5000 m
haze

METAR: OIKQ 230600Z 07008KT 5000 HZ NSC 20/14 Q1017

Time: 10:02 (06:32 UTC)


TAF: missing

Weather observations and forecasts of more than 4000 airports (METAR and TAF reports).

The available stations are represented by yellow and red dots on the map.

Hover mouse over dot to see the name of the station.

Then click to see weather observations and forecasts.

To change the map : click on the green buttons with a black cross to zoom in, on the green button with a dash to zoom out, or on the green arrows for adjacent maps.


METAR-TAF: